Regional Weather Roundup
Issued by NWS Newport/Morehead, NC

Current Version | Previous Version | Text Only | Print | Product List | Glossary On
Versions: 1 2 3 4 5 6 7 8 9 10 11 12 13 14 15 16 17 18 19 20 21 22 23 24 25 26 27 28 29 30 31 32 33 34 35 36 37 38 39 40 41 42 43 44 45 46 47 48 49 50
000
ASUS42 KMHX 242014
RWRMHX
WEATHER ROUNDUP FOR EASTERN NORTH CAROLINA
NATIONAL WEATHER SERVICE NEWPORT/MOREHEAD CITY NC
400 PM EDT SAT JUN 24 2017

NOTE: "FAIR" INDICATES FEW OR NO CLOUDS BELOW 12,000 FEET
WITH NO SIGNIFICANT WEATHER AND/OR OBSTRUCTIONS TO VISIBILITY

NCZ015>017-031-032-045>047-102-103-242100-
NORTH COAST

CITY           SKY/WX    TMP DP  RH WIND       PRES   REMARKS
EDENTON        SUNNY     91  70  49 CALM      29.92S
ELIZABETH CITY SUNNY     89  72  56 SW10      29.90F
KITTY HAWK     CLEAR     88  69  53 W9        29.91S
MANTEO         MOSUNNY   87  72  60 NW6       29.92S

$$

NCZ045>047-081-094-103-104-242100-
CENTRAL COAST

CITY           SKY/WX    TMP DP  RH WIND       PRES   REMARKS
FRISCO         SUNNY     84  76  76 SW12G21   29.94F

$$

NCZ095-097-098-100-101-242100-
SOUTHERN COAST

CITY           SKY/WX    TMP DP  RH WIND       PRES   REMARKS
BEAUFORT       SUNNY     85  79  82 SW23G31   29.93F
CEDAR ISLAND   NOT AVBL
JACKSONVILLE   PTSUNNY   89  78  70 S12G17    29.91F HX 103
PINEY ISLAND   CLEAR    N/A N/A N/A SW21G26   29.91F
WILMINGTON     SUNNY     90  74  59 SW17G25   29.94F


$$

NCZ011>013-027>030-043-044-078>080-089-090>093-098-242100-
COASTAL PLAIN

CITY           SKY/WX    TMP DP  RH WIND       PRES   REMARKS
AHOSKIE          N/A     87  70  57 CALM      29.91S
CLINTON        MOSUNNY   88  76  68 SW5       29.92S
ELIZABETHTOWN  NOT AVBL
GOLDSBORO      TSTM      79  79 100 SW9       29.91S VSB 3/4
GREENVILLE     PTSUNNY   91  72  52 W6        29.93F
HAVELOCK       MOSUNNY   90  75  61 SW18G29   29.91F THUNDER HX 100
KENANSVILLE    PTSUNNY   90  75  62 SW7       29.91F HX 100
KINSTON        CLOUDY    88  73  62 SW9       29.91F
NEW BERN       CLOUDY    84  76  76 W5        29.92F
RICHLANDS      PTSUNNY   92  76  59 S13G18    29.92F HX 104
ROCKY MOUNT    CLOUDY    90  73  57 VRB5      29.91F
WASHINGTON     CLOUDY   N/A N/A N/A W5        29.91F
WHITEVILLE     MOSUNNY   91  73  54 S13       29.93F

$$

AMZ130-135-150-152-154-156-158-170-250-252-270-ANZ085-086-088-633-658-670-242100-
MARINE OBSERVATIONS

STATION/POSITION TIME  TEMP    WIND        PRES    WAVE   SWELL
                       AIR SEA DIR/SP/G            HT/PER HT/PER
                 (UTC) (F)     (DEG/KT/KT) (MB)    (FT/S) (FT/S)
CHESAPEAKE LIGHT NOT AVBL
64 E VA BEACH    1950   76 74  210/  4/  4 1013.5    6/ 7   7/ 7
DUCK             1942   87 59  250/ 12/ 13 1012.5
2 E DUCK         NOT AVBL
OREGON INLET     1948          190/ 17/ 19   N/A
13E OREGON INLT  1948      74                N/A     4/ 7   2/ 7
HATTERAS CG      1942   82 79  220/ 13/ 19 1013.9
DIAMOND BUOY     1950   81 80  230/ 19/ 23 1013.9    7/ 8   2/15
CAPE LOOKOUT     2000   82     210/ 15/ 19 1013.5
BEAUFORT LAB     1942   83 80  210/ 13/ 19 1013.5
30 SE NEW RVR IN 1908   80 80  230/ 19/ 25 1014.9
30 SE NEW RVR IN 1943      80                N/A     6/ 6
27 SE WRIGHTSVLE 1908   79 80  210/ 19/ 25 1014.9
5 SE WRIGHTSVLE  1908   80 79  200/ 14/ 21 1014.8
225 S CAPE HAT   1950   81 81  210/ 14/ 16 1019.3    4/ 5   2/ 9
41 SE CHARLESTON 1950   81 81  210/ 16/ 17 1016.4    4/ 6   2/ 9

$$



USA.gov is the U.S. government's official web portal to all federal, state and local government web resources and services.